Weather History for San Diego Montgomery, CA

Change the Weather History Date:

Friday, January 10, 2014

  Actual Average Record
Temperature  
Mean Temperature 58 °F -  
Max Temperature 71 °F 64 °F 77 °F (2009)
Min Temperature 45 °F 45 °F 39 °F (2000)
Degree Days  
Heating Degree Days 7    
Growing Degree Days 8 (Base 50)    
Moisture  
Dew Point 44 °F    
Average Humidity 66    
Maximum Humidity 90    
Minimum Humidity 31    
Precipitation  
Precipitation 0.01 in - - ()
Sea Level Pressure  
Sea Level Pressure 30.07 in    
Wind  
Wind Speed 2 mph (NW)    
Max Wind Speed 7 mph    
Max Gust Speed -    
Visibility 7 miles    
Events      
Averages and records for this station are not official NWS values.
T = Trace of Precipitation, MM = Missing Value Source: NWS Daily Summary

Daily Weather History Graph

Daily Weather History Graph

Search for Another Location

Airport:

Trip Planner

Search our weather history database for the weather conditions in past years. The results will help you decide how hot, cold, wet, or windy it might be!

Date:

Astronomy

Jan. 10, 2014 Rise Set
Actual Time 6:51 AM PST 5:00 PM PST
Civil Twilight 6:24 AM PST 5:27 PM PST
Nautical Twilight 5:54 AM PST 5:58 PM PST
Astronomical Twilight 5:24 AM PST 6:27 PM PST
Moon 1:03 PM PST (1/10) 2:08 AM PST (1/10)
Length of Visible Light 11h 02m
Length of Day
10h 08m
Waxing Gibbous, 76% of the Moon is Illuminated
Jan 10
Waxing Gibbous
Jan 15
Full
Jan 23
Last Quarter
Jan 30
New
Feb 6
First Quarter

Hourly Weather History & Observations

Time (PST) Temp. Windchill Dew Point Humidity Pressure Visibility Wind Dir Wind Speed Gust Speed Precip Events Conditions
12:53 AM 46.9 °F - 44.1 °F 90% 30.04 in 3.0 mi ESE 3.5 mph - N/A   Clear
1:53 AM 48.0 °F - 45.0 °F 89% 30.05 in 6.0 mi NNW 4.6 mph - N/A   Clear
2:53 AM 46.9 °F - 44.1 °F 90% 30.04 in 6.0 mi Calm Calm - N/A   Clear
3:53 AM 46.0 °F 43.9 °F 43.0 °F 89% 30.05 in 6.0 mi NW 4.6 mph - N/A   Clear
4:53 AM 46.0 °F - 43.0 °F 89% 30.06 in 5.0 mi Calm Calm - 0.01 in   Clear
5:53 AM 46.0 °F - 43.0 °F 89% 30.07 in 6.0 mi Calm Calm - N/A   Clear
6:53 AM 45.0 °F - 42.1 °F 90% 30.07 in 4.0 mi Calm Calm - N/A   Clear
7:53 AM 50.0 °F - 46.0 °F 86% 30.09 in 8.0 mi Calm Calm - N/A   Clear
8:53 AM 57.0 °F - 46.9 °F 69% 30.10 in 8.0 mi Calm Calm - N/A   Clear
9:53 AM 64.9 °F - 42.1 °F 43% 30.11 in 10.0 mi Calm Calm - N/A   Clear
10:53 AM 66.0 °F - 45.0 °F 47% 30.11 in 8.0 mi Variable 3.5 mph - N/A   Clear
11:53 AM 66.9 °F - 46.9 °F 49% 30.08 in 8.0 mi NW 5.8 mph - N/A   Clear
12:53 PM 70.0 °F - 37.9 °F 31% 30.05 in 10.0 mi Variable 5.8 mph - N/A   Clear
1:53 PM 71.1 °F - 41.0 °F 34% 30.04 in 10.0 mi North 4.6 mph - N/A   Clear
2:53 PM 70.0 °F - 39.9 °F 33% 30.04 in 7.0 mi NW 6.9 mph - N/A   Clear
3:53 PM 68.0 °F - 45.0 °F 43% 30.04 in 7.0 mi West 5.8 mph - N/A   Clear
4:53 PM 64.9 °F - 46.0 °F 50% 30.04 in 7.0 mi West 4.6 mph - N/A   Clear
5:53 PM 60.1 °F - 45.0 °F 57% 30.06 in 7.0 mi Calm Calm - N/A   Clear
6:53 PM 57.9 °F - 46.0 °F 65% 30.08 in 6.0 mi Calm Calm - N/A   Haze
7:53 PM 55.9 °F - 45.0 °F 67% 30.08 in 6.0 mi Calm Calm - N/A   Haze
8:53 PM 52.0 °F - 42.1 °F 69% 30.10 in 6.0 mi Calm Calm - N/A   Haze
9:53 PM 52.0 °F - 43.0 °F 71% 30.10 in 5.0 mi Calm Calm - N/A   Haze
10:53 PM 53.1 °F - 44.1 °F 71% 30.10 in 6.0 mi Calm Calm - N/A   Haze
11:53 PM 50.0 °F - 42.1 °F 74% 30.10 in 6.0 mi Calm Calm - N/A   Haze